owner,sensor,date,latitude,longitude,vertical_datum,direction_of_sea_water_velocity,sea_water_speed,upward_sea_water_velocity,qcFlag 
TABS,ioos:station:wmo:42049:1,2017-06-05T04:00:00Z,28.3507,-96.0058,2.0,264.4593655,13.05096548,-99999.0,'11111222,11111222,99999999' 
TABS,ioos:station:wmo:42049:1,2017-06-05T04:30:00Z,28.3507,-96.0058,2.0,218.4734832,19.7217266,-99999.0,'11111222,11111222,99999999' 
TABS,ioos:station:wmo:42049:1,2017-06-05T05:00:00Z,28.3507,-96.0058,2.0,251.0484242,37.90459867,-99999.0,'11111222,11111222,99999999' 
TABS,ioos:station:wmo:42049:1,2017-06-05T05:30:00Z,28.3507,-96.0058,2.0,264.3081355,32.77155169,-99999.0,'11111222,11111222,99999999' 
TABS,ioos:station:wmo:42049:1,2017-06-05T06:00:00Z,28.3507,-96.0058,2.0,257.3576828,46.14879088,-99999.0,'11111222,11111222,99999999' 
TABS,ioos:station:wmo:42049:1,2017-06-05T06:30:00Z,28.3507,-96.0058,2.0,304.3927579,37.10668403,-99999.0,'11111222,11111222,99999999' 
TABS,ioos:station:wmo:42049:1,2017-06-05T07:00:00Z,28.3507,-96.0058,2.0,284.2447622,56.08430797,-99999.0,'11111222,11111222,99999999' 
TABS,ioos:station:wmo:42049:1,2017-06-05T07:30:00Z,28.3507,-96.0058,2.0,283.7286716,57.30714528,-99999.0,'11111222,11111222,99999999' 
TABS,ioos:station:wmo:42049:1,2017-06-05T08:00:00Z,28.3507,-96.0058,2.0,284.6601991,55.7137326,-99999.0,'11111222,11111222,99999999' 
TABS,ioos:station:wmo:42049:1,2017-06-05T08:30:00Z,28.3507,-96.0058,2.0,284.4717061,52.38192914,-99999.0,'11111222,11111222,99999999' 
TABS,ioos:station:wmo:42049:1,2017-06-05T09:00:00Z,28.3507,-96.0058,2.0,287.8873431,48.93532262,-99999.0,'11111222,11111222,99999999' 
TABS,ioos:station:wmo:42049:1,2017-06-05T09:30:00Z,28.3507,-96.0058,2.0,286.9289209,46.43195882,-99999.0,'11111222,11111222,99999999' 
TABS,ioos:station:wmo:42049:1,2017-06-05T10:00:00Z,28.3507,-96.0058,2.0,286.6838469,45.21323368,-99999.0,'11111222,11111222,99999999' 
TABS,ioos:station:wmo:42049:1,2017-06-05T10:30:00Z,28.3507,-96.0058,2.0,292.7956771,44.2132842,-99999.0,'11111222,11111222,99999999' 
TABS,ioos:station:wmo:42049:1,2017-06-05T11:00:00Z,28.3507,-96.0058,2.0,288.7590274,40.86044175,-99999.0,'11111222,11111222,99999999' 
TABS,ioos:station:wmo:42049:1,2017-06-05T11:30:00Z,28.3507,-96.0058,2.0,282.6074851,38.8978367,-99999.0,'11111222,11111222,99999999' 
TABS,ioos:station:wmo:42049:1,2017-06-05T12:00:00Z,28.3507,-96.0058,2.0,284.7060658,36.95039919,-99999.0,'11111222,11111222,99999999' 
TABS,ioos:station:wmo:42049:1,2017-06-05T12:30:00Z,28.3507,-96.0058,2.0,280.3214547,34.7726473,-99999.0,'11111222,11111222,99999999' 
TABS,ioos:station:wmo:42049:1,2017-06-05T13:00:00Z,28.3507,-96.0058,2.0,285.0981852,23.9569301,-99999.0,'11111222,11111222,99999999' 
TABS,ioos:station:wmo:42049:1,2017-06-05T13:30:00Z,28.3507,-96.0058,2.0,265.5847059,29.87865626,-99999.0,'11111222,11111222,99999999' 
TABS,ioos:station:wmo:42049:1,2017-06-05T14:00:00Z,28.3507,-96.0058,2.0,274.0100844,31.17631152,-99999.0,'11111222,11111222,99999999' 
TABS,ioos:station:wmo:42049:1,2017-06-05T14:30:00Z,28.3507,-96.0058,2.0,266.8590089,31.57742548,-99999.0,'11111222,11111222,99999999' 
TABS,ioos:station:wmo:42049:1,2017-06-05T15:00:00Z,28.3507,-96.0058,2.0,268.0089727,30.22824176,-99999.0,'11111222,11111222,99999999' 
TABS,ioos:station:wmo:42049:1,2017-06-05T15:30:00Z,28.3507,-96.0058,2.0,271.0788443,30.28536445,-99999.0,'11111222,11111222,99999999' 
TABS,ioos:station:wmo:42049:1,2017-06-05T16:00:00Z,28.3507,-96.0058,2.0,266.5674454,30.73512648,-99999.0,'11111222,11111222,99999999' 
TABS,ioos:station:wmo:42049:1,2017-06-05T16:30:00Z,28.3507,-96.0058,2.0,264.3640127,31.16061135,-99999.0,'11111222,11111222,99999999' 
TABS,ioos:station:wmo:42049:1,2017-06-05T17:00:00Z,28.3507,-96.0058,2.0,266.1389653,31.93246154,-99999.0,'11111222,11111222,99999999' 
TABS,ioos:station:wmo:42049:1,2017-06-05T17:30:00Z,28.3507,-96.0058,2.0,267.7503327,28.79218297,-99999.0,'11111222,11111222,99999999' 
TABS,ioos:station:wmo:42049:1,2017-06-05T18:00:00Z,28.3507,-96.0058,2.0,265.3539583,25.80477669,-99999.0,'11111222,11111222,99999999' 
TABS,ioos:station:wmo:42049:1,2017-06-05T18:30:00Z,28.3507,-96.0058,2.0,271.0380035,23.19380305,-99999.0,'11111222,11111222,99999999' 
TABS,ioos:station:wmo:42049:1,2017-06-05T19:00:00Z,28.3507,-96.0058,2.0,270.8545358,26.16290695,-99999.0,'11111222,11111222,99999999' 
TABS,ioos:station:wmo:42049:1,2017-06-05T19:30:00Z,28.3507,-96.0058,2.0,268.2228145,24.51178492,-99999.0,'11111222,11111222,99999999' 
TABS,ioos:station:wmo:42049:1,2017-06-05T20:00:00Z,28.3507,-96.0058,2.0,271.2501277,22.9254531,-99999.0,'11111222,11111222,99999999' 
TABS,ioos:station:wmo:42049:1,2017-06-05T20:30:00Z,28.3507,-96.0058,2.0,265.1724236,24.71767182,-99999.0,'11111222,11111222,99999999' 
TABS,ioos:station:wmo:42049:1,2017-06-05T21:00:00Z,28.3507,-96.0058,2.0,263.1158165,23.86201375,-99999.0,'11111222,11111222,99999999' 
TABS,ioos:station:wmo:42049:1,2017-06-05T21:30:00Z,28.3507,-96.0058,2.0,271.8790634,24.4031166,-99999.0,'11111222,11111222,99999999' 
TABS,ioos:station:wmo:42049:1,2017-06-05T22:00:00Z,28.3507,-96.0058,2.0,267.6650781,20.86731895,-99999.0,'11111222,11111222,99999999' 
TABS,ioos:station:wmo:42049:1,2017-06-05T22:30:00Z,28.3507,-96.0058,2.0,279.0638054,25.26544874,-99999.0,'11111222,11111222,99999999' 
TABS,ioos:station:wmo:42049:1,2017-06-05T23:00:00Z,28.3507,-96.0058,2.0,281.1262704,25.03043148,-99999.0,'11111222,11111222,99999999' 
TABS,ioos:station:wmo:42049:1,2017-06-05T23:30:00Z,28.3507,-96.0058,2.0,269.4791745,23.1209537,-99999.0,'11111222,11111222,99999999' 
TABS,ioos:station:wmo:42049:1,2017-06-06T00:00:00Z,28.3507,-96.0058,2.0,268.9944954,17.10263138,-99999.0,'11111222,11111222,99999999' 
TABS,ioos:station:wmo:42049:1,2017-06-06T00:30:00Z,28.3507,-96.0058,2.0,279.5738615,17.79786785,-99999.0,'11111222,11111222,99999999' 
TABS,ioos:station:wmo:42049:1,2017-06-06T01:00:00Z,28.3507,-96.0058,2.0,280.3720993,19.16311561,-99999.0,'11111222,11111222,99999999' 
TABS,ioos:station:wmo:42049:1,2017-06-06T01:30:00Z,28.3507,-96.0058,2.0,269.8521382,19.43006433,-99999.0,'11111222,11111222,99999999' 
TABS,ioos:station:wmo:42049:1,2017-06-06T02:00:00Z,28.3507,-96.0058,2.0,275.0838047,20.08901441,-99999.0,'11111222,11111222,99999999' 
TABS,ioos:station:wmo:42049:1,2017-06-06T02:30:00Z,28.3507,-96.0058,2.0,284.0603499,17.57655825,-99999.0,'11111222,11111222,99999999' 
TABS,ioos:station:wmo:42049:1,2017-06-06T03:00:00Z,28.3507,-96.0058,2.0,293.3180748,15.78963267,-99999.0,'11111222,11111222,99999999' 
TABS,ioos:station:wmo:42049:1,2017-06-06T03:30:00Z,28.3507,-96.0058,2.0,287.96625,13.51919006,-99999.0,'11111222,11111222,99999999' 
TABS,ioos:station:wmo:42049:1,2017-06-06T04:00:00Z,28.3507,-96.0058,2.0,300.801047,12.65493184,-99999.0,'11111222,11111222,99999999' 
TABS,ioos:station:wmo:42049:1,2017-06-06T04:30:00Z,28.3507,-96.0058,2.0,304.2231018,13.42432494,-99999.0,'11111222,11111222,99999999' 
TABS,ioos:station:wmo:42049:1,2017-06-06T05:00:00Z,28.3507,-96.0058,2.0,295.2812198,13.76869275,-99999.0,'11111222,11111222,99999999' 
TABS,ioos:station:wmo:42049:1,2017-06-06T05:30:00Z,28.3507,-96.0058,2.0,302.8375937,12.48491089,-99999.0,'11111222,11111222,99999999' 
TABS,ioos:station:wmo:42049:1,2017-06-06T06:00:00Z,28.3507,-96.0058,2.0,314.3822883,17.69991243,-99999.0,'11111222,11111222,99999999' 
TABS,ioos:station:wmo:42049:1,2017-06-06T06:30:00Z,28.3507,-96.0058,2.0,320.3941113,16.92529763,-99999.0,'11111222,11111222,99999999' 
TABS,ioos:station:wmo:42049:1,2017-06-06T07:00:00Z,28.3507,-96.0058,2.0,312.3395279,17.05966588,-99999.0,'11111222,11111222,99999999' 
TABS,ioos:station:wmo:42049:1,2017-06-06T07:30:00Z,28.3507,-96.0058,2.0,332.7643429,19.09732966,-99999.0,'11111222,11111222,99999999' 
TABS,ioos:station:wmo:42049:1,2017-06-06T08:00:00Z,28.3507,-96.0058,2.0,339.9222079,20.62336781,-99999.0,'11111222,11111222,99999999' 
TABS,ioos:station:wmo:42049:1,2017-06-06T08:30:00Z,28.3507,-96.0058,2.0,345.0076853,15.69424098,-99999.0,'11111222,11111222,99999999' 
TABS,ioos:station:wmo:42049:1,2017-06-06T09:00:00Z,28.3507,-96.0058,2.0,338.9074313,15.61631519,-99999.0,'11111222,11111222,99999999' 
TABS,ioos:station:wmo:42049:1,2017-06-06T09:30:00Z,28.3507,-96.0058,2.0,333.41321,11.64097075,-99999.0,'11111222,11111222,99999999' 
TABS,ioos:station:wmo:42049:1,2017-06-06T10:00:00Z,28.3507,-96.0058,2.0,337.7638207,11.49487277,-99999.0,'11111222,11111222,99999999' 
TABS,ioos:station:wmo:42049:1,2017-06-06T10:30:00Z,28.3507,-96.0058,2.0,347.661152,9.827003612,-99999.0,'11133222,11111222,99999999' 
TABS,ioos:station:wmo:42049:1,2017-06-06T11:00:00Z,28.3507,-96.0058,2.0,350.1651015,9.601104103,-99999.0,'11133222,11111222,99999999' 
TABS,ioos:station:wmo:42049:1,2017-06-06T11:30:00Z,28.3507,-96.0058,2.0,9.961614479,6.41673593,-99999.0,'11133222,11111222,99999999' 
TABS,ioos:station:wmo:42049:1,2017-06-06T12:00:00Z,28.3507,-96.0058,2.0,343.9758507,3.984833748,-99999.0,'11133222,11111222,99999999' 
TABS,ioos:station:wmo:42049:1,2017-06-06T12:30:00Z,28.3507,-96.0058,2.0,346.3788444,3.014796842,-99999.0,'11133222,11111222,99999999' 
TABS,ioos:station:wmo:42049:1,2017-06-06T13:00:00Z,28.3507,-96.0058,2.0,39.71887695,4.225221888,-99999.0,'11133222,11111222,99999999' 
TABS,ioos:station:wmo:42049:1,2017-06-06T13:30:00Z,28.3507,-96.0058,2.0,45.86221814,5.169535763,-99999.0,'11133222,11111222,99999999' 
TABS,ioos:station:wmo:42049:1,2017-06-06T14:00:00Z,28.3507,-96.0058,2.0,67.76335532,3.910856684,-99999.0,'11133222,11111222,99999999' 
TABS,ioos:station:wmo:42049:1,2017-06-06T14:30:00Z,28.3507,-96.0058,2.0,85.47524211,5.577382899,-99999.0,'11133222,11111222,99999999' 
TABS,ioos:station:wmo:42049:1,2017-06-06T15:00:00Z,28.3507,-96.0058,2.0,100.7695427,7.278193457,-99999.0,'11133222,11111222,99999999' 
TABS,ioos:station:wmo:42049:1,2017-06-06T15:30:00Z,28.3507,-96.0058,2.0,98.07456432,5.837876326,-99999.0,'11133222,11111222,99999999' 
TABS,ioos:station:wmo:42049:1,2017-06-06T16:00:00Z,28.3507,-96.0058,2.0,113.6579417,8.024394058,-99999.0,'11133222,11111222,99999999' 
TABS,ioos:station:wmo:42049:1,2017-06-06T16:30:00Z,28.3507,-96.0058,2.0,134.7222121,8.754084761,-99999.0,'11133222,11111222,99999999' 
TABS,ioos:station:wmo:42049:1,2017-06-06T17:00:00Z,28.3507,-96.0058,2.0,133.4087582,8.14901221,-99999.0,'11133222,11111222,99999999' 
TABS,ioos:station:wmo:42049:1,2017-06-06T17:30:00Z,28.3507,-96.0058,2.0,129.2524808,8.755569656,-99999.0,'11133222,11111222,99999999' 
TABS,ioos:station:wmo:42049:1,2017-06-06T18:00:00Z,28.3507,-96.0058,2.0,133.9443156,8.44428801,-99999.0,'11133222,11111222,99999999' 
TABS,ioos:station:wmo:42049:1,2017-06-06T18:30:00Z,28.3507,-96.0058,2.0,155.347018,11.12392467,-99999.0,'11111222,11111222,99999999' 
TABS,ioos:station:wmo:42049:1,2017-06-06T19:00:00Z,28.3507,-96.0058,2.0,155.3160979,12.26026101,-99999.0,'11111222,11111222,99999999' 
TABS,ioos:station:wmo:42049:1,2017-06-06T19:30:00Z,28.3507,-96.0058,2.0,147.3806227,7.717227481,-99999.0,'11133222,11111222,99999999' 
TABS,ioos:station:wmo:42049:1,2017-06-06T20:00:00Z,28.3507,-96.0058,2.0,179.3089195,11.61084407,-99999.0,'11111222,11111222,99999999' 
TABS,ioos:station:wmo:42049:1,2017-06-06T20:30:00Z,28.3507,-96.0058,2.0,183.8880904,13.86190824,-99999.0,'11111222,11111222,99999999' 
TABS,ioos:station:wmo:42049:1,2017-06-06T21:00:00Z,28.3507,-96.0058,2.0,185.8935932,12.75743705,-99999.0,'11111222,11111222,99999999' 
TABS,ioos:station:wmo:42049:1,2017-06-06T21:30:00Z,28.3507,-96.0058,2.0,179.2095549,11.6011034,-99999.0,'11111222,11111222,99999999' 
TABS,ioos:station:wmo:42049:1,2017-06-06T22:00:00Z,28.3507,-96.0058,2.0,172.1464946,12.29531618,-99999.0,'11111222,11111222,99999999' 
TABS,ioos:station:wmo:42049:1,2017-06-06T22:30:00Z,28.3507,-96.0058,2.0,170.4066777,14.40138882,-99999.0,'11111222,11111222,99999999' 
TABS,ioos:station:wmo:42049:1,2017-06-06T23:00:00Z,28.3507,-96.0058,2.0,174.2519726,13.77927792,-99999.0,'11111222,11111222,99999999' 
TABS,ioos:station:wmo:42049:1,2017-06-06T23:30:00Z,28.3507,-96.0058,2.0,178.5125483,11.94402361,-99999.0,'11111222,11111222,99999999' 
TABS,ioos:station:wmo:42049:1,2017-06-07T00:00:00Z,28.3507,-96.0058,2.0,170.0300075,16.51945822,-99999.0,'11111222,11111222,99999999' 
TABS,ioos:station:wmo:42049:1,2017-06-07T00:30:00Z,28.3507,-96.0058,2.0,177.1206799,17.12161207,-99999.0,'11111222,11111222,99999999' 
TABS,ioos:station:wmo:42049:1,2017-06-07T01:00:00Z,28.3507,-96.0058,2.0,187.0680656,15.03425755,-99999.0,'11111222,11111222,99999999' 
TABS,ioos:station:wmo:42049:1,2017-06-07T01:30:00Z,28.3507,-96.0058,2.0,190.8107371,13.06182989,-99999.0,'11111222,11111222,99999999' 
TABS,ioos:station:wmo:42049:1,2017-06-07T02:00:00Z,28.3507,-96.0058,2.0,184.0305869,12.66131905,-99999.0,'11111222,11111222,99999999' 
TABS,ioos:station:wmo:42049:1,2017-06-07T02:30:00Z,28.3507,-96.0058,2.0,194.4798487,10.95808834,-99999.0,'11111222,11111222,99999999' 
TABS,ioos:station:wmo:42049:1,2017-06-07T03:00:00Z,28.3507,-96.0058,2.0,207.6880787,10.26552483,-99999.0,'11111222,11111222,99999999' 
TABS,ioos:station:wmo:42049:1,2017-06-07T03:30:00Z,28.3507,-96.0058,2.0,205.2056822,12.63286587,-99999.0,'11111222,11111222,99999999' 
TABS,ioos:station:wmo:42049:1,2017-06-07T04:00:00Z,28.3507,-96.0058,2.0,208.5804869,13.85878061,-99999.0,'11111222,11111222,99999999' 
TABS,ioos:station:wmo:42049:1,2017-06-07T04:30:00Z,28.3507,-96.0058,2.0,206.098212,13.7299126,-99999.0,'11111222,11111222,99999999' 
TABS,ioos:station:wmo:42049:1,2017-06-07T05:00:00Z,28.3507,-96.0058,2.0,230.3432406,11.31337704,-99999.0,'11111222,11111222,99999999' 
TABS,ioos:station:wmo:42049:1,2017-06-07T05:30:00Z,28.3507,-96.0058,2.0,256.1272259,7.632627333,-99999.0,'11133222,11111222,99999999' 
TABS,ioos:station:wmo:42049:1,2017-06-07T06:00:00Z,28.3507,-96.0058,2.0,260.8838793,9.783562746,-99999.0,'11133222,11111222,99999999' 
TABS,ioos:station:wmo:42049:1,2017-06-07T06:30:00Z,28.3507,-96.0058,2.0,269.6353065,11.01022252,-99999.0,'11111222,11111222,99999999' 
TABS,ioos:station:wmo:42049:1,2017-06-07T07:00:00Z,28.3507,-96.0058,2.0,279.2967273,13.61886926,-99999.0,'11111222,11111222,99999999' 
TABS,ioos:station:wmo:42049:1,2017-06-07T07:30:00Z,28.3507,-96.0058,2.0,290.5342277,12.08801059,-99999.0,'11111222,11111222,99999999' 
TABS,ioos:station:wmo:42049:1,2017-06-07T08:00:00Z,28.3507,-96.0058,2.0,285.6159511,12.40798533,-99999.0,'11111222,11111222,99999999' 
TABS,ioos:station:wmo:42049:1,2017-06-07T08:30:00Z,28.3507,-96.0058,2.0,280.4897862,9.997064569,-99999.0,'11133222,11111222,99999999' 
TABS,ioos:station:wmo:42049:1,2017-06-07T09:00:00Z,28.3507,-96.0058,2.0,285.3505215,11.10620097,-99999.0,'11111222,11111222,99999999' 
TABS,ioos:station:wmo:42049:1,2017-06-07T09:30:00Z,28.3507,-96.0058,2.0,278.491818,13.6799598,-99999.0,'11111222,11111222,99999999' 
TABS,ioos:station:wmo:42049:1,2017-06-07T10:00:00Z,28.3507,-96.0058,2.0,292.473182,13.78696848,-99999.0,'11111222,11111222,99999999' 
TABS,ioos:station:wmo:42049:1,2017-06-07T10:30:00Z,28.3507,-96.0058,2.0,275.6421712,11.59617178,-99999.0,'11111222,11111222,99999999' 
TABS,ioos:station:wmo:42049:1,2017-06-07T11:00:00Z,28.3507,-96.0058,2.0,296.0696627,10.85428026,-99999.0,'11111222,11111222,99999999' 
TABS,ioos:station:wmo:42049:1,2017-06-07T11:30:00Z,28.3507,-96.0058,2.0,295.6511954,12.61302898,-99999.0,'11111222,11111222,99999999' 
TABS,ioos:station:wmo:42049:1,2017-06-07T12:00:00Z,28.3507,-96.0058,2.0,281.3374299,8.291791121,-99999.0,'11133222,11111222,99999999' 
TABS,ioos:station:wmo:42049:1,2017-06-07T12:30:00Z,28.3507,-96.0058,2.0,291.581543,12.56052547,-99999.0,'11111222,11111222,99999999' 
TABS,ioos:station:wmo:42049:1,2017-06-07T13:00:00Z,28.3507,-96.0058,2.0,310.5817056,9.361634473,-99999.0,'11133222,11111222,99999999' 
TABS,ioos:station:wmo:42049:1,2017-06-07T13:30:00Z,28.3507,-96.0058,2.0,282.9826387,10.41624212,-99999.0,'11111222,11111222,99999999' 
TABS,ioos:station:wmo:42049:1,2017-06-07T14:00:00Z,28.3507,-96.0058,2.0,281.2729399,12.02192164,-99999.0,'11111222,11111222,99999999' 
TABS,ioos:station:wmo:42049:1,2017-06-07T14:30:00Z,28.3507,-96.0058,2.0,288.8806206,12.20676042,-99999.0,'11111222,11111222,99999999' 
TABS,ioos:station:wmo:42049:1,2017-06-07T15:00:00Z,28.3507,-96.0058,2.0,296.104727,10.56799886,-99999.0,'11111222,11111222,99999999' 
TABS,ioos:station:wmo:42049:1,2017-06-07T15:30:00Z,28.3507,-96.0058,2.0,300.5387056,8.777539519,-99999.0,'11133222,11111222,99999999' 
TABS,ioos:station:wmo:42049:1,2017-06-07T16:00:00Z,28.3507,-96.0058,2.0,287.9456322,9.25,-99999.0,'11133222,11111222,99999999' 
TABS,ioos:station:wmo:42049:1,2017-06-07T16:30:00Z,28.3507,-96.0058,2.0,302.9566472,18.84193727,-99999.0,'11111222,11111222,99999999' 
TABS,ioos:station:wmo:42049:1,2017-06-07T17:00:00Z,28.3507,-96.0058,2.0,315.530227,19.11391378,-99999.0,'11111222,11111222,99999999' 
TABS,ioos:station:wmo:42049:1,2017-06-07T17:30:00Z,28.3507,-96.0058,2.0,321.6979793,17.52147539,-99999.0,'11111222,11111222,99999999' 
TABS,ioos:station:wmo:42049:1,2017-06-07T18:00:00Z,28.3507,-96.0058,2.0,326.5865651,15.52623908,-99999.0,'11111222,11111222,99999999' 
TABS,ioos:station:wmo:42049:1,2017-06-07T18:30:00Z,28.3507,-96.0058,2.0,330.9629894,16.06992533,-99999.0,'11111222,11111222,99999999' 
TABS,ioos:station:wmo:42049:1,2017-06-07T19:00:00Z,28.3507,-96.0058,2.0,328.4634041,15.94502117,-99999.0,'11111222,11111222,99999999' 
TABS,ioos:station:wmo:42049:1,2017-06-07T19:30:00Z,28.3507,-96.0058,2.0,328.6891947,13.29652962,-99999.0,'11111222,11111222,99999999' 
TABS,ioos:station:wmo:42049:1,2017-06-07T20:00:00Z,28.3507,-96.0058,2.0,328.7603847,11.74264451,-99999.0,'11111222,11111222,99999999' 
TABS,ioos:station:wmo:42049:1,2017-06-07T20:30:00Z,28.3507,-96.0058,2.0,335.4606341,11.89436842,-99999.0,'11111222,11111222,99999999' 
TABS,ioos:station:wmo:42049:1,2017-06-07T21:00:00Z,28.3507,-96.0058,2.0,335.1097676,10.4066325,-99999.0,'11111222,11111222,99999999' 
TABS,ioos:station:wmo:42049:1,2017-06-07T21:30:00Z,28.3507,-96.0058,2.0,324.5873283,10.14728042,-99999.0,'11111222,11111222,99999999' 
TABS,ioos:station:wmo:42049:1,2017-06-07T22:00:00Z,28.3507,-96.0058,2.0,327.7369031,12.47630154,-99999.0,'11111222,11111222,99999999' 
TABS,ioos:station:wmo:42049:1,2017-06-07T22:30:00Z,28.3507,-96.0058,2.0,339.9846171,12.03704698,-99999.0,'11111222,11111222,99999999' 
TABS,ioos:station:wmo:42049:1,2017-06-07T23:00:00Z,28.3507,-96.0058,2.0,329.0780509,11.8316905,-99999.0,'11111222,11111222,99999999' 
TABS,ioos:station:wmo:42049:1,2017-06-07T23:30:00Z,28.3507,-96.0058,2.0,350.5770521,12.03236469,-99999.0,'11111222,11111222,99999999' 
TABS,ioos:station:wmo:42049:1,2017-06-08T00:00:00Z,28.3507,-96.0058,2.0,328.8430201,11.17148155,-99999.0,'11111222,11111222,99999999' 
TABS,ioos:station:wmo:42049:1,2017-06-08T00:30:00Z,28.3507,-96.0058,2.0,333.7134499,12.89331998,-99999.0,'11111222,11111222,99999999' 
TABS,ioos:station:wmo:42049:1,2017-06-08T01:00:00Z,28.3507,-96.0058,2.0,337.4310001,12.19385091,-99999.0,'11111222,11111222,99999999' 
TABS,ioos:station:wmo:42049:1,2017-06-08T01:30:00Z,28.3507,-96.0058,2.0,350.9441116,13.91343595,-99999.0,'11111222,11111222,99999999' 
TABS,ioos:station:wmo:42049:1,2017-06-08T02:00:00Z,28.3507,-96.0058,2.0,4.775606835,12.13211441,-99999.0,'11111222,11111222,99999999' 
TABS,ioos:station:wmo:42049:1,2017-06-08T02:30:00Z,28.3507,-96.0058,2.0,2.462406431,10.00924073,-99999.0,'11111222,11111222,99999999' 
TABS,ioos:station:wmo:42049:1,2017-06-08T03:00:00Z,28.3507,-96.0058,2.0,31.82424234,10.0509502,-99999.0,'11111222,11111222,99999999' 
TABS,ioos:station:wmo:42049:1,2017-06-08T03:30:00Z,28.3507,-96.0058,2.0,38.75451018,8.514605099,-99999.0,'11133222,11111222,99999999' 
TABS,ioos:station:wmo:42049:1,2017-06-08T04:00:00Z,28.3507,-96.0058,2.0,41.22369253,8.588783383,-99999.0,'11133222,11111222,99999999' 
TABS,ioos:station:wmo:42049:1,2017-06-08T04:30:00Z,28.3507,-96.0058,2.0,57.30223122,11.05128499,-99999.0,'11111222,11111222,99999999' 
TABS,ioos:station:wmo:42049:1,2017-06-08T05:00:00Z,28.3507,-96.0058,2.0,59.2805951,12.46977546,-99999.0,'11111222,11111222,99999999' 
TABS,ioos:station:wmo:42049:1,2017-06-08T05:30:00Z,28.3507,-96.0058,2.0,62.60319069,12.32203311,-99999.0,'11111222,11111222,99999999' 
TABS,ioos:station:wmo:42049:1,2017-06-08T06:00:00Z,28.3507,-96.0058,2.0,73.03013669,12.36854882,-99999.0,'11111222,11111222,99999999' 
TABS,ioos:station:wmo:42049:1,2017-06-08T06:30:00Z,28.3507,-96.0058,2.0,98.47665031,13.09302868,-99999.0,'11111222,11111222,99999999' 
TABS,ioos:station:wmo:42049:1,2017-06-08T07:00:00Z,28.3507,-96.0058,2.0,102.1243236,13.52161233,-99999.0,'11111222,11111222,99999999' 
TABS,ioos:station:wmo:42049:1,2017-06-08T07:30:00Z,28.3507,-96.0058,2.0,108.621942,14.53074327,-99999.0,'11111222,11111222,99999999' 
TABS,ioos:station:wmo:42049:1,2017-06-08T08:00:00Z,28.3507,-96.0058,2.0,114.5201103,17.42111937,-99999.0,'11111222,11111222,99999999' 
TABS,ioos:station:wmo:42049:1,2017-06-08T08:30:00Z,28.3507,-96.0058,2.0,122.0299437,19.72232238,-99999.0,'11111222,11111222,99999999' 
TABS,ioos:station:wmo:42049:1,2017-06-08T09:00:00Z,28.3507,-96.0058,2.0,134.2751963,19.56720982,-99999.0,'11111222,11111222,99999999' 
TABS,ioos:station:wmo:42049:1,2017-06-08T09:30:00Z,28.3507,-96.0058,2.0,145.1156233,19.16350699,-99999.0,'11111222,11111222,99999999' 
TABS,ioos:station:wmo:42049:1,2017-06-08T10:00:00Z,28.3507,-96.0058,2.0,155.7969219,21.05034204,-99999.0,'11111222,11111222,99999999' 
TABS,ioos:station:wmo:42049:1,2017-06-08T10:30:00Z,28.3507,-96.0058,2.0,159.762129,24.22555056,-99999.0,'11111222,11111222,99999999' 
TABS,ioos:station:wmo:42049:1,2017-06-08T11:00:00Z,28.3507,-96.0058,2.0,171.4376707,24.38173497,-99999.0,'11111222,11111222,99999999' 
TABS,ioos:station:wmo:42049:1,2017-06-08T11:30:00Z,28.3507,-96.0058,2.0,187.6799893,20.35257478,-99999.0,'11111222,11111222,99999999' 
TABS,ioos:station:wmo:42049:1,2017-06-08T12:00:00Z,28.3507,-96.0058,2.0,188.5168528,18.63551716,-99999.0,'11111222,11111222,99999999' 
TABS,ioos:station:wmo:42049:1,2017-06-08T12:30:00Z,28.3507,-96.0058,2.0,215.2173002,20.60056553,-99999.0,'11111222,11111222,99999999' 
TABS,ioos:station:wmo:42049:1,2017-06-08T13:00:00Z,28.3507,-96.0058,2.0,199.5305922,20.9982023,-99999.0,'11111222,11111222,99999999' 
TABS,ioos:station:wmo:42049:1,2017-06-08T13:30:00Z,28.3507,-96.0058,2.0,214.5206293,21.42200037,-99999.0,'11111222,11111222,99999999' 
TABS,ioos:station:wmo:42049:1,2017-06-08T14:00:00Z,28.3507,-96.0058,2.0,228.7171044,24.53873876,-99999.0,'11111222,11111222,99999999' 
TABS,ioos:station:wmo:42049:1,2017-06-08T14:30:00Z,28.3507,-96.0058,2.0,236.3547406,28.1565907,-99999.0,'11111222,11111222,99999999' 
TABS,ioos:station:wmo:42049:1,2017-06-08T15:00:00Z,28.3507,-96.0058,2.0,235.4051674,29.51927506,-99999.0,'11111222,11111222,99999999' 
TABS,ioos:station:wmo:42049:1,2017-06-08T15:30:00Z,28.3507,-96.0058,2.0,233.9581565,32.78542664,-99999.0,'11111222,11111222,99999999' 
TABS,ioos:station:wmo:42049:1,2017-06-08T16:00:00Z,28.3507,-96.0058,2.0,236.2798547,32.06444916,-99999.0,'11111222,11111222,99999999' 
TABS,ioos:station:wmo:42049:1,2017-06-08T16:30:00Z,28.3507,-96.0058,2.0,230.2770781,30.05924982,-99999.0,'11111222,11111222,99999999' 
TABS,ioos:station:wmo:42049:1,2017-06-08T17:00:00Z,28.3507,-96.0058,2.0,236.6795702,27.48874133,-99999.0,'11111222,11111222,99999999' 
TABS,ioos:station:wmo:42049:1,2017-06-08T17:30:00Z,28.3507,-96.0058,2.0,231.3572036,25.79834491,-99999.0,'11111222,11111222,99999999' 
TABS,ioos:station:wmo:42049:1,2017-06-08T18:00:00Z,28.3507,-96.0058,2.0,235.973414,24.1076855,-99999.0,'11111222,11111222,99999999' 
TABS,ioos:station:wmo:42049:1,2017-06-08T18:30:00Z,28.3507,-96.0058,2.0,236.0348735,23.7164795,-99999.0,'11111222,11111222,99999999' 
TABS,ioos:station:wmo:42049:1,2017-06-08T19:00:00Z,28.3507,-96.0058,2.0,236.5923986,17.9808259,-99999.0,'11111222,11111222,99999999' 
TABS,ioos:station:wmo:42049:1,2017-06-08T19:30:00Z,28.3507,-96.0058,2.0,230.1275505,16.53469383,-99999.0,'11111222,11111222,99999999' 
TABS,ioos:station:wmo:42049:1,2017-06-08T20:00:00Z,28.3507,-96.0058,2.0,236.165653,18.76834036,-99999.0,'11111222,11111222,99999999' 